KC8C Weather Reports


Display with metric or nautical units.
time (UTC)temp
F
wind
direction
speed
MPH
gust
MPH
rain 1hr
in
rain 24hr
in
rain mn
in
humidity
%
barometer
mb
20260510154556 55 302 5.0 13.0 0.00 0.03 0.00 38 1018.9
20260510154055 54 292 6.0 11.0 0.00 0.03 0.00 41 1018.8
20260510153553 54 284 3.0 9.0 0.00 0.03 0.00 38 1018.8
20260510153052 54 350 1.0 9.0 0.00 0.03 0.00 42 1018.7
20260510152556 54 283 3.0 10.0 0.00 0.03 0.00 45 1018.6
20260510152050 54 341 2.0 8.0 0.00 0.03 0.00 41 1018.6
20260510151551 53 334 1.0 9.0 0.00 0.03 0.00 44 1018.5
20260510151049 53 336 2.0 12.0 0.00 0.03 0.00 45 1018.5
20260510150552 53 304 5.0 10.0 0.00 0.03 0.00 43 1018.5
20260510150048 53 294 4.0 11.0 0.00 0.03 0.00 42 1018.5
20260510145546 53 309 4.0 13.0 0.00 0.03 0.00 44 1018.4
20260510145046 52 251 5.0 13.0 0.00 0.03 0.00 40 1018.3
20260510144549 52 273 3.0 10.0 0.00 0.03 0.00 43 1018.3
20260510144045 52 344 0.0 10.0 0.00 0.03 0.00 47 1018.2
20260510143545 52 313 3.0 10.0 0.00 0.03 0.00 44 1018.3
20260510143044 52 340 0.0 5.0 0.00 0.03 0.00 46 1018.2
20260510142543 51 292 1.0 4.0 0.00 0.03 0.00 47 1018.0
20260510142048 51 296 1.0 8.0 0.00 0.03 0.00 49 1018.0
20260510141549 51 294 2.0 8.0 0.00 0.03 0.00 46 1018.1
20260510141043 51 264 1.0 8.0 0.00 0.03 0.00 52 1018.0
20260510140545 51 321 2.0 6.0 0.00 0.03 0.00 46 1017.9
20260510140041 51 311 1.0 4.0 0.00 0.03 0.00 48 1018.0
20260510135541 50 311 1.0 9.0 0.00 0.03 0.00 49 1018.1
20260510135041 50 288 3.0 9.0 0.00 0.03 0.00 48 1018.1
20260510134539 50 317 0.0 7.0 0.00 0.03 0.00 51 1017.8
20260510134040 50 15 1.0 5.0 0.00 0.03 0.00 52 1018.0
20260510133539 49 325 2.0 5.0 0.00 0.03 0.00 52 1017.9
20260510133049 49 317 1.0 9.0 0.00 0.03 0.00 55 1017.9
20260510132538 49 290 2.0 10.0 0.00 0.03 0.00 53 1017.8
20260510132037 49 82 2.0 6.0 0.00 0.03 0.00 54 1017.7
20260510131536 49 323 1.0 6.0 0.00 0.03 0.00 54 1017.7
20260510131035 48 309 0.0 7.0 0.00 0.03 0.00 55 1017.7
20260510130535 48 26 0.0 3.0 0.00 0.03 0.00 58 1017.5
20260510130035 48 26 0.0 3.0 0.00 0.03 0.00 55 1017.5
20260510125534 47 57 0.0 4.0 0.00 0.03 0.00 57 1017.4
20260510125034 47 50 1.0 4.0 0.00 0.03 0.00 56 1017.4
20260510124535 47 360 0.0 5.0 0.00 0.03 0.00 58 1017.5
20260510124033 47 61 1.0 5.0 0.00 0.03 0.00 56 1017.3
20260510123534 46 65 0.0 5.0 0.00 0.03 0.00 58 1017.3
20260510123035 46 67 2.0 6.0 0.00 0.03 0.00 57 1017.2
20260510122533 46 70 1.0 6.0 0.00 0.03 0.00 58 1017.1
20260510122031 46 323 0.0 5.0 0.00 0.03 0.00 60 1017.2
20260510121531 45 309 0.0 5.0 0.00 0.03 0.00 62 1017.1
20260510121033 45 288 1.0 6.0 0.00 0.03 0.00 61 1017.1
20260510120529 44 66 1.0 6.0 0.00 0.03 0.00 62 1017.0
20260510120031 44 280 2.0 5.0 0.00 0.03 0.00 65 1017.0
20260510115531 43 99 0.0 3.0 0.00 0.03 0.00 65 1016.9
20260510115027 43 31 0.0 4.0 0.00 0.03 0.00 66 1016.9
20260510114527 42 311 0.0 5.0 0.00 0.03 0.00 67 1016.7
20260510114027 42 302 0.0 4.0 0.00 0.03 0.00 68 1016.5
20260510113525 41 308 0.0 4.0 0.00 0.03 0.00 68 1016.5
20260510113025 41 289 0.0 5.0 0.00 0.03 0.00 69 1016.5
20260510112524 41 295 2.0 5.0 0.00 0.03 0.00 68 1016.4
20260510112027 41 290 1.0 5.0 0.00 0.03 0.00 69 1016.3
20260510111524 40 360 2.0 5.0 0.00 0.03 0.00 69 1016.3
20260510111022 40 285 2.0 5.0 0.00 0.03 0.00 69 1016.2
20260510110522 40 283 2.0 5.0 0.00 0.03 0.00 69 1016.1
20260510110026 40 286 1.0 5.0 0.00 0.03 0.00 70 1016.1
20260510105521 40 284 1.0 4.0 0.00 0.03 0.00 70 1016.1
20260510105020 40 283 2.0 4.0 0.00 0.03 0.00 70 1016.0
20260510104519 40 360 1.0 3.0 0.00 0.03 0.00 71 1016.0
20260510104019 40 360 1.0 3.0 0.00 0.03 0.00 71 1015.8
20260510103519 40 360 1.0 3.0 0.00 0.03 0.00 71 1015.7
20260510103019 40 360 1.0 3.0 0.00 0.03 0.00 71 1015.7
20260510102519 40 360 1.0 3.0 0.00 0.03 0.00 71 1015.8
20260510102017 40 360 1.0 3.0 0.00 0.03 0.00 71 1015.7
20260510101516 40 360 1.0 3.0 0.00 0.03 0.00 71 1015.6
20260510101015 40 360 0.0 3.0 0.00 0.03 0.00 70 1015.5
20260510100515 40 360 1.0 3.0 0.00 0.03 0.00 70 1015.4
20260510100013 40 360 1.0 3.0 0.00 0.03 0.00 71 1015.4
20260510095511 40 360 1.0 3.0 0.00 0.03 0.00 71 1015.4
20260510095011 40 360 0.0 2.0 0.00 0.03 0.00 71 1015.2
20260510094511 40 360 0.0 2.0 0.00 0.03 0.00 70 1015.2
20260510094010 41 283 0.0 2.0 0.00 0.03 0.00 70 1015.3
20260510093509 41 360 0.0 2.0 0.00 0.03 0.00 70 1015.0
20260510093008 41 282 0.0 1.0 0.00 0.03 0.00 70 1015.0
20260510092508 41 283 0.0 1.0 0.00 0.03 0.00 70 1015.0
20260510092008 41 283 0.0 2.0 0.00 0.03 0.00 70 1015.0
20260510091511 41 283 0.0 2.0 0.00 0.03 0.00 70 1014.9
20260510091006 41 283 0.0 4.0 0.00 0.03 0.00 70 1014.7
20260510090508 41 283 1.0 4.0 0.00 0.03 0.00 70 1014.6
20260510090005 41 42 1.0 3.0 0.00 0.03 0.00 70 1014.6
20260510085503 41 43 0.0 2.0 0.00 0.03 0.00 70 1014.5
20260510085002 41 44 0.0 2.0 0.00 0.03 0.00 71 1014.3
20260510084502 41 61 0.0 2.0 0.00 0.03 0.00 71 1014.1
20260510084003 41 61 0.0 0.0 0.00 0.03 0.00 70 1014.1
20260510083601 42 62 0.0 0.0 0.00 0.03 0.00 70 1014.1
20260510083100 42 61 0.0 0.0 0.00 0.03 0.00 70 1014.0
20260510082558 42 61 0.0 1.0 0.00 0.03 0.00 69 1013.9
20260510082058 42 64 0.0 1.0 0.00 0.03 0.00 68 1013.7
20260510081557 43 360 0.0 0.0 0.00 0.03 0.00 68 1013.7
20260510081056 43 59 0.0 0.0 0.00 0.03 0.00 67 1013.6
20260510080555 43 59 0.0 0.0 0.00 0.03 0.00 67 1013.5
20260510080054 44 59 0.0 1.0 0.00 0.03 0.00 66 1013.5
20260510075552 44 59 0.0 1.0 0.00 0.03 0.00 65 1013.4
20260510075051 45 59 0.0 0.0 0.00 0.03 0.00 64 1013.3
20260510074550 45 59 0.0 0.0 0.00 0.03 0.00 63 1013.1
20260510074049 45 60 0.0 1.0 0.00 0.03 0.00 62 1013.1
20260510073548 46 59 0.0 2.0 0.00 0.03 0.00 62 1013.0
20260510073103 46 59 0.0 2.0 0.00 0.03 0.00 61 1013.0
20260510072546 46 59 0.0 2.0 0.00 0.03 0.00 61 1013.0
20260510072044 47 63 0.0 1.0 0.00 0.03 0.00 60 1013.0
20260510071551 47 360 0.0 2.0 0.00 0.03 0.00 59 1012.9
20260510071041 47 360 0.0 2.0 0.00 0.03 0.00 58 1012.8
20260510070544 48 360 0.0 3.0 0.00 0.03 0.00 58 1012.8
20260510070043 48 64 0.0 3.0 0.00 0.03 0.00 58 1012.7
20260510065539 48 61 0.0 3.0 0.00 0.03 0.00 57 1012.6
20260510065038 48 59 0.0 5.0 0.00 0.03 0.00 57 1012.4
20260510064548 48 59 0.0 5.0 0.00 0.03 0.00 57 1012.4
20260510064037 48 298 0.0 2.0 0.00 0.03 0.00 57 1012.3
20260510063537 48 311 0.0 3.0 0.00 0.03 0.00 59 1012.3
20260510063040 48 311 0.0 3.0 0.00 0.03 0.00 59 1012.3
20260510062536 49 305 0.0 5.0 0.00 0.03 0.00 60 1012.2
20260510062034 49 305 0.0 5.0 0.00 0.03 0.00 59 1012.1
20260510061534 49 5 0.0 3.0 0.00 0.03 0.00 59 1012.0
20260510061033 49 355 0.0 3.0 0.00 0.03 0.00 59 1011.9
20260510060532 49 355 0.0 2.0 0.00 0.03 0.00 60 1011.8
20260510060032 49 355 0.0 2.0 0.00 0.03 0.00 59 1011.8
20260510055530 49 355 0.0 2.0 0.00 0.03 0.00 59 1011.7
20260510055031 49 355 0.0 2.0 0.00 0.03 0.00 60 1011.6
20260510054529 49 350 0.0 1.0 0.00 0.03 0.00 60 1011.5
20260510054030 50 355 0.0 2.0 0.00 0.03 0.00 59 1011.4
20260510053527 50 355 0.0 1.0 0.00 0.03 0.00 59 1011.3
20260510053026 50 355 0.0 3.0 0.00 0.03 0.00 58 1011.2
20260510052528 51 355 0.0 3.0 0.00 0.03 0.00 58 1011.1
20260510052024 51 14 0.0 1.0 0.00 0.03 0.00 58 1011.1
20260510051527 51 14 0.0 2.0 0.00 0.03 0.00 58 1010.9
20260510051023 52 14 0.0 3.0 0.00 0.03 0.00 57 1010.9
20260510050523 52 15 0.0 2.0 0.00 0.03 0.00 57 1010.9
20260510050020 52 15 0.0 2.0 0.00 0.03 0.00 56 1010.7
20260510045520 52 27 0.0 2.0 0.00 0.03 0.00 57 1010.7
20260510045019 52 27 0.0 2.0 0.00 0.03 0.00 56 1010.7
20260510044520 52 5 0.0 5.0 0.00 0.03 0.00 56 1010.5
20260510044017 53 347 0.0 3.0 0.00 0.03 0.00 57 1010.5
20260510043517 53 344 0.0 3.0 0.00 0.03 0.00 57 1010.4
20260510043016 53 308 0.0 3.0 0.00 0.03 0.00 57 1010.4
20260510042515 53 302 0.0 3.0 0.00 0.03 0.00 57 1010.4
20260510042014 53 52 0.0 2.0 0.00 0.03 0.00 57 1010.4
20260510041513 53 52 0.0 2.0 0.00 0.03 0.00 57 1010.3
20260510041012 54 54 0.0 2.0 0.00 0.03 0.00 57 1010.1
20260510040512 54 53 0.0 4.0 0.00 0.03 0.00 57 1010.1
20260510040015 54 53 0.0 5.0 0.00 0.03 0.00 56 1010.0
20260510035509 54 47 0.0 5.0 0.00 0.03 0.03 56 1009.9
20260510035011 55 48 0.0 7.0 0.00 0.03 0.03 56 1009.8
20260510034509 55 68 2.0 7.0 0.00 0.03 0.03 56 1009.8
20260510034009 55 57 1.0 10.0 0.00 0.03 0.03 56 1009.8
20260510033507 56 61 1.0 4.0 0.00 0.03 0.03 56 1009.7
20260510033008 56 80 1.0 9.0 0.00 0.03 0.03 55 1009.5
20260510032506 57 50 1.0 9.0 0.00 0.03 0.03 54 1009.4
20260510032005 57 55 0.0 4.0 0.00 0.03 0.03 53 1009.4
20260510031511 57 355 0.0 6.0 0.00 0.03 0.03 50 1009.2
20260510031004 58 42 0.0 4.0 0.00 0.03 0.03 50 1009.1
20260510030507 58 319 0.0 5.0 0.00 0.03 0.03 50 1009.0
20260510030008 58 319 1.0 6.0 0.00 0.03 0.03 50 1009.0
20260510025502 58 325 2.0 6.0 0.00 0.03 0.03 49 1008.9
20260510025002 59 345 1.0 5.0 0.00 0.03 0.03 49 1008.8
20260510024502 59 323 0.0 4.0 0.00 0.03 0.03 50 1008.8
20260510024001 59 325 1.0 6.0 0.00 0.03 0.03 49 1008.7
20260510023600 59 320 1.0 6.0 0.00 0.03 0.03 49 1008.6
20260510023100 59 256 1.0 8.0 0.00 0.03 0.03 48 1008.4
20260510022600 59 360 1.0 8.0 0.00 0.03 0.03 48 1008.3
20260510022100 59 331 1.0 9.0 0.00 0.03 0.03 47 1008.1
20260510021603 59 322 1.0 9.0 0.00 0.03 0.03 47 1007.9
20260510021059 60 292 1.0 8.0 0.00 0.03 0.03 49 1007.9
20260510020559 60 300 1.0 9.0 0.00 0.03 0.03 50 1007.8
20260510020100 60 42 1.0 9.0 0.00 0.03 0.03 50 1007.5
20260510015559 60 304 2.0 9.0 0.00 0.03 0.03 51 1007.5
20260510015102 60 282 1.0 9.0 0.00 0.03 0.03 52 1007.1
20260510014618 60 315 2.0 8.0 0.00 0.03 0.03 52 1007.0
20260510014058 59 306 2.0 6.0 0.00 0.03 0.03 53 1006.7
20260510013601 59 300 3.0 7.0 0.00 0.03 0.03 54 1006.7
20260510013103 59 304 2.0 5.0 0.00 0.03 0.03 54 1006.5
20260510012558 60 310 0.0 3.0 0.00 0.03 0.03 54 1006.4
20260510012058 60 310 0.0 2.0 0.00 0.03 0.03 54 1006.3
20260510011558 61 310 0.0 2.0 0.00 0.03 0.03 52 1006.2
20260510011057 61 310 0.0 4.0 0.00 0.03 0.03 53 1006.1
20260510010557 61 310 0.0 4.0 0.00 0.03 0.03 51 1006.0
20260510010057 62 310 0.0 3.0 0.00 0.03 0.03 51 1005.9
20260510005557 62 310 0.0 3.0 0.00 0.03 0.03 51 1005.9
20260510005056 62 310 0.0 1.0 0.00 0.03 0.03 49 1005.9
20260510004557 63 310 0.0 3.0 0.00 0.03 0.03 49 1005.7
20260510004100 63 310 0.0 3.0 0.00 0.03 0.03 49 1005.6
20260510003556 63 310 0.0 2.0 0.00 0.03 0.03 47 1005.5
20260510003103 64 310 0.0 6.0 0.00 0.03 0.03 47 1005.5
20260510002557 64 310 2.0 6.0 0.00 0.03 0.03 46 1005.4
20260510002056 64 277 3.0 7.0 0.00 0.03 0.03 45 1005.2
20260510001556 64 298 1.0 11.0 0.00 0.03 0.03 45 1005.0
20260510001056 65 306 2.0 16.0 0.00 0.03 0.03 45 1005.0
20260510000556 65 300 5.0 16.0 0.00 0.03 0.03 43 1005.0
20260510000058 65 296 4.0 14.0 0.00 0.03 0.03 43 1005.0
20260509235555 65 289 7.0 14.0 0.00 0.03 0.03 43 1004.9
20260509235055 66 317 5.0 14.0 0.00 0.03 0.03 43 1004.8
20260509234555 66 237 5.0 12.0 0.00 0.03 0.03 42 1004.8
20260509234055 66 263 4.0 15.0 0.00 0.03 0.03 42 1004.7
20260509233558 66 317 4.0 15.0 0.00 0.03 0.03 41 1004.7
20260509233055 66 292 4.0 25.0 0.00 0.03 0.03 40 1004.6
20260509232557 67 310 7.0 25.0 0.00 0.03 0.03 40 1004.5
20260509232054 67 257 8.0 21.0 0.00 0.03 0.03 39 1004.5
20260509231557 67 257 8.0 21.0 0.00 0.03 0.03 38 1004.5
20260509231053 67 275 5.0 16.0 0.00 0.03 0.03 38 1004.5
20260509230555 67 279 10.0 16.0 0.00 0.03 0.03 38 1004.4
20260509230056 68 308 7.0 21.0 0.00 0.03 0.03 38 1004.4
20260509225552 68 283 9.0 21.0 0.00 0.03 0.03 36 1004.3
20260509225054 68 283 9.0 21.0 0.00 0.03 0.03 36 1004.2
20260509224559 68 305 9.0 21.0 0.00 0.03 0.03 36 1004.1
20260509224052 68 275 8.0 27.0 0.00 0.03 0.03 35 1003.9
20260509223552 68 228 13.0 27.0 0.00 0.03 0.03 35 1003.8
20260509223056 68 315 11.0 24.0 0.00 0.03 0.03 36 1003.6
20260509222555 68 309 8.0 20.0 0.00 0.03 0.03 37 1003.5
20260509222051 69 263 10.0 22.0 0.00 0.03 0.03 36 1003.4
20260509221603 69 289 10.0 23.0 0.00 0.03 0.03 37 1003.3
20260509221051 69 271 5.0 13.0 0.00 0.03 0.03 39 1003.3
20260509220550 69 260 4.0 18.0 0.00 0.03 0.03 40 1003.1
20260509220051 68 309 3.0 18.0 0.00 0.03 0.03 40 1003.2
20260509215550 69 240 4.0 17.0 0.00 0.03 0.03 39 1003.1
20260509215050 69 259 7.0 17.0 0.00 0.03 0.03 38 1003.1
20260509214553 70 294 9.0 19.0 0.00 0.03 0.03 36 1003.0
20260509214050 70 275 11.0 19.0 0.00 0.03 0.03 35 1002.9
20260509213551 71 272 9.0 21.0 0.00 0.03 0.03 35 1002.9
20260509213049 71 258 7.0 21.0 0.00 0.03 0.03 34 1002.9
20260509212550 71 231 6.0 17.0 0.00 0.03 0.03 35 1002.9
20260509212050 71 313 8.0 21.0 0.00 0.03 0.03 34 1002.9
20260509211548 71 275 11.0 21.0 0.00 0.03 0.03 34 1002.9
20260509211047 70 234 8.0 18.0 0.00 0.03 0.03 35 1003.0
20260509210547 70 272 9.0 17.0 0.00 0.03 0.03 36 1002.9
20260509210052 70 269 8.0 17.0 0.00 0.03 0.03 37 1003.0
20260509205546 70 221 7.0 16.0 0.00 0.03 0.03 39 1003.1
20260509205044 69 315 8.0 16.0 0.00 0.03 0.03 40 1003.2
20260509204546 69 297 6.0 15.0 0.00 0.03 0.03 42 1003.0
20260509204043 69 305 5.0 16.0 0.00 0.03 0.03 46 1003.2
20260509203542 69 299 7.0 16.0 0.00 0.03 0.03 49 1003.3
20260509203044 69 310 5.0 14.0 0.00 0.03 0.03 50 1003.5
20260509202542 69 267 8.0 18.0 0.00 0.03 0.03 48 1003.5
20260509202042 69 312 4.0 13.0 0.00 0.03 0.03 54 1003.6
20260509201549 68 310 6.0 13.0 0.00 0.03 0.03 57 1003.6
20260509201042 68 308 4.0 13.0 0.00 0.03 0.03 57 1003.6
20260509200543 67 269 4.0 13.0 0.00 0.03 0.03 59 1003.5
20260509200051 66 298 4.0 12.0 0.00 0.03 0.03 60 1003.7
20260509195540 65 290 5.0 13.0 0.01 0.03 0.03 61 1003.7
20260509195040 65 277 4.0 10.0 0.03 0.03 0.03 64 1003.5
20260509194540 64 300 2.0 8.0 0.03 0.03 0.03 67 1003.7
20260509194039 63 272 3.0 8.0 0.03 0.03 0.03 74 1003.7
20260509193540 61 319 4.0 8.0 0.03 0.03 0.03 75 1003.7
20260509193042 60 275 3.0 9.0 0.03 0.03 0.03 80 1003.8
20260509192539 59 300 5.0 9.0 0.03 0.03 0.03 79 1003.9
20260509192039 58 237 2.0 6.0 0.03 0.03 0.03 81 1004.0
20260509191539 58 249 1.0 5.0 0.03 0.03 0.03 77 1004.2
20260509191042 58 249 1.0 8.0 0.03 0.03 0.03 75 1004.2
20260509190538 58 248 3.0 18.0 0.03 0.03 0.03 72 1004.3
20260509190043 59 304 6.0 26.0 0.03 0.03 0.03 69 1004.3
20260509185538 61 290 9.0 28.0 0.01 0.01 0.01 65 1004.2
20260509185037 64 299 10.0 28.0 0.00 0.00 0.00 56 1004.1
20260509184537 67 355 5.0 16.0 0.00 0.00 0.00 50 1003.9
20260509184037 67 262 8.0 14.0 0.00 0.00 0.00 52 1003.0
20260509183537 68 224 5.0 13.0 0.00 0.00 0.00 52 1002.7
20260509183039 68 176 5.0 13.0 0.00 0.00 0.00 52 1002.6
20260509182537 68 220 5.0 14.0 0.00 0.00 0.00 51 1002.6
20260509182036 68 232 7.0 19.0 0.00 0.00 0.00 50 1002.6
20260509181539 69 272 9.0 19.0 0.00 0.00 0.00 50 1002.4
20260509181036 69 247 6.0 12.0 0.00 0.00 0.00 51 1002.5
20260509180537 69 207 5.0 20.0 0.00 0.00 0.00 51 1002.5
20260509180036 69 199 7.0 20.0 0.00 0.00 0.00 49 1002.4
20260509175534 70 182 10.0 19.0 0.00 0.00 0.00 51 1002.5
20260509175034 70 184 6.0 17.0 0.00 0.00 0.00 52 1002.7
20260509174534 70 192 6.0 12.0 0.00 0.00 0.00 52 1002.8
20260509174033 70 244 4.0 15.0 0.00 0.00 0.00 53 1002.8
20260509173533 70 200 7.0 16.0 0.00 0.00 0.00 52 1002.8
20260509173032 70 240 4.0 15.0 0.00 0.00 0.00 53 1002.9
20260509172532 69 238 5.0 15.0 0.00 0.00 0.00 53 1002.9
20260509172030 69 213 4.0 16.0 0.00 0.00 0.00 54 1002.9
20260509171536 69 252 6.0 16.0 0.00 0.00 0.00 52 1002.9
20260509171027 68 234 7.0 21.0 0.00 0.00 0.00 52 1003.1
20260509170531 68 238 5.0 21.0 0.00 0.00 0.00 53 1003.1
20260509170031 68 249 4.0 15.0 0.00 0.00 0.00 53 1003.1
20260509165525 68 229 6.0 15.0 0.00 0.00 0.00 53 1002.9
20260509165026 67 235 6.0 12.0 0.00 0.00 0.00 54 1003.2
20260509164523 67 165 6.0 14.0 0.00 0.00 0.00 55 1003.2
20260509164024 66 204 6.0 20.0 0.00 0.00 0.00 57 1003.3
20260509163522 66 226 7.0 20.0 0.00 0.00 0.00 56 1003.2
20260509163025 65 201 5.0 14.0 0.00 0.00 0.00 58 1003.2
20260509162519 65 225 5.0 14.0 0.00 0.00 0.00 58 1003.5
20260509162019 65 198 5.0 13.0 0.00 0.00 0.00 58 1003.3
20260509161518 65 191 4.0 11.0 0.00 0.00 0.00 60 1003.3
20260509161018 65 186 3.0 15.0 0.00 0.00 0.00 60 1003.5
20260509160519 65 205 7.0 15.0 0.00 0.00 0.00 57 1003.5
20260509160017 65 189 4.0 12.0 0.00 0.00 0.00 60 1003.5
20260509155514 65 223 5.0 12.0 0.00 0.00 0.00 60 1003.6
20260509155014 64 190 6.0 12.0 0.00 0.00 0.00 60 1003.6